[[{"header":{"parameterUnit":"m.s-1","parameterCategory":1,"la1":30.2991,"la2":30.254,"lo1":-89.0895,"lo2":-89.0444,"dy":0.0017,"dx":0.0017,"nx":28,"ny":28,"refTime":"2024-08-20T09:00:00:Z","depth":0,"parameterNumber":2,"parameterNumberName":"U-component_of_WINDS"},"data":[0,0,0,0,0,0,0,0,0,0,0,0,0,0,0,0,0,0,0,0,0,0,0,0,0,0,0,0,0,0,0,0,0,0,0,0,0,0,0,0,0,0,0,0,0,0,0,0,0,0,0,0,0,0,0,0,0,0,0.4811,0.481,0,0.4746,0.4745,0.4744,0.4713,0.4713,0.4713,0.4713,0.4643,0.4641,0.464,0,0,0,0,0,0,0,0,0,0,0,0,0,0.4908,0.4907,0.4811,0.481,0.481,0.4746,0.4745,0.4744,0.4713,0.4713,0.4713,0.4713,0.4644,0.4642,0.4639,0,0,0,0,0,0,0,0,0,0,0,0,0,0.4857,0.4906,0.4811,0.4786,0.4783,0.4746,0.4745,0.4744,0.4713,0.4713,0.4713,0.4713,0.4645,0.4642,0.4639,0.4621,0,0,0.463,0.4629,0,0,0,0,0,0,0,0,0.486,0.4853,0.4791,0.4788,0.4785,0.4737,0.4753,0.4702,0.4713,0.4739,0.4713,0.4713,0.4674,0.4669,0.4657,0.4617,0.4614,0.463,0.4629,0.4627,0.4627,0,0,0,0,0,0,0,0.4863,0.4856,0.4785,0.479,0.4786,0.4778,0.4771,0.4744,0.4707,0.4737,0.4735,0.4727,0.4673,0.4659,0.4655,0.4613,0.463,0.4628,0.4626,0.4625,0.4557,0.4557,0,0,0,0,0,0,0.4871,0.4859,0.4787,0.4783,0.4823,0.4776,0.4768,0.4752,0.4708,0.4701,0.4727,0.4726,0.4664,0.4658,0.4652,0.4628,0.4627,0.4625,0.4623,0.4557,0.4557,0.4557,0,0,0,0,0,0,0.4873,0.4865,0.479,0.482,0.481,0.4775,0.4757,0.4751,0.4738,0.47,0.4694,0.4721,0.4664,0.4656,0.4629,0.4625,0.4623,0.4621,0.4557,0.4557,0.4557,0.4579,0,0,0,0,0,0,0.4876,0.4866,0.4859,0.4821,0.4809,0.4768,0.4757,0.475,0.4733,0.4731,0.4692,0.4686,0.4663,0.4633,0.4626,0.4621,0.4619,0.4557,0.4557,0.4557,0.4579,0.458,0.4581,0,0,0,0,0,0.488,0.4867,0.4859,0.485,0.4799,0.4768,0.4761,0.4737,0.4733,0.4725,0.4702,0.4687,0.4627,0.4631,0.4623,0.4617,0.4557,0.4557,0.4557,0.4578,0.458,0.4581,0,0,0,0,0,0,0.4905,0.4862,0.4852,0.4826,0.4801,0.4763,0.4752,0.4739,0.4713,0.4712,0.4682,0.4674,0.4649,0.463,0.4635,0.4597,0.4591,0.4589,0.461,0.4611,0.4612,0.4617,0.4616,0,0,0,0,0,0.4908,0.4887,0.485,0.4831,0.4819,0.4788,0.4774,0.4757,0.4729,0.4718,0.4692,0.4666,0.4641,0.4625,0.46,0.4576,0.4567,0.4568,0.4569,0.457,0.4569,0.4555,0.4555,0.4556,0.4556,0.4556,0,0,0.4913,0.4887,0.4875,0.4836,0.4814,0.4793,0.4779,0.4757,0.4741,0.4715,0.4688,0.4668,0.4636,0.4611,0.4599,0.4594,0.4567,0.457,0.4571,0.4569,0.4555,0.4555,0.4555,0.4556,0.4556,0.4556,0,0,0.4911,0.489,0.4872,0.4851,0.4819,0.4799,0.4795,0.4758,0.4745,0.4717,0.4698,0.4678,0.4636,0.4614,0.4598,0.459,0.4575,0.4582,0.4588,0.4575,0.4575,0.4575,0.4572,0.4571,0.4581,0.4581,0.4581,0,0.4921,0.4889,0.4864,0.4843,0.4826,0.4803,0.4785,0.4766,0.4727,0.4716,0.4712,0.466,0.4637,0.4606,0.4604,0.4592,0.4586,0.4586,0.4577,0.4577,0.4576,0.4573,0.4572,0.4582,0.4582,0.4582,0.4582,0,0.4903,0.4881,0.487,0.4834,0.4816,0.4797,0.4769,0.4754,0.4739,0.472,0.4692,0.4664,0.4634,0.4625,0.461,0.4593,0.4592,0.4583,0.4576,0.4577,0.4574,0.4572,0.4584,0.4583,0.4583,0.4583,0,0,0.4913,0.4866,0.4862,0.4846,0.481,0.4792,0.4772,0.4743,0.473,0.4705,0.4687,0.4653,0.4645,0.4626,0.4609,0.4598,0.4593,0.459,0.4589,0.4592,0.4573,0.4579,0.4578,0.4584,0.4584,0.4584,0.4575,0,0.4906,0.4869,0.4847,0.4819,0.4798,0.4777,0.4759,0.4735,0.4717,0.4696,0.4675,0.4651,0.4643,0.4631,0.462,0.4597,0.4589,0.4597,0.4567,0.4566,0.4575,0.4576,0.4582,0.4576,0.4574,0.4574,0.4573,0,0.4893,0.4869,0.4839,0.4806,0.4797,0.4781,0.4753,0.4734,0.4707,0.4694,0.4674,0.4657,0.4634,0.4631,0.4599,0.4605,0.4592,0.4579,0.4578,0.4573,0.4569,0.4571,0.4573,0.4572,0.4571,0.4571,0.4571,0,0.4904,0.4864,0.4841,0.4828,0.4789,0.4779,0.4762,0.4735,0.4719,0.4695,0.4684,0.4657,0.4642,0.4622,0.4598,0.4597,0.4569,0.4563,0.4558,0.4558,0.4552,0.4552,0.4551,0.4544,0.4544,0.4544,0.4544,0,0.4898,0.488,0.4846,0.4831,0.4811,0.4786,0.4767,0.4749,0.4725,0.4706,0.4686,0.467,0.4639,0.4619,0.46,0.4577,0.4571,0.4559,0.4554,0.4561,0.4562,0.4551,0.455,0.4544,0.4544,0.4544,0.4544,0,0.4906,0.4882,0.4856,0.4822,0.4813,0.4799,0.477,0.4755,0.4736,0.4714,0.4707,0.4677,0.4652,0.4626,0.4592,0.4579,0.4557,0.4551,0.4566,0.4564,0.456,0.456,0.455,0.4548,0.4544,0.4544,0.4544,0,0.4903,0.4889,0.4854,0.4841,0.4825,0.4804,0.4788,0.4763,0.4748,0.4716,0.4705,0.4679,0.4657,0.4618,0.4592,0.4567,0.4559,0.4557,0.4555,0.4562,0.4558,0.4559,0.4558,0.4558,0.4558,0.4558,0.4558,0,0.4901,0.489,0.4869,0.4843,0.4825,0.4804,0.4781,0.4772,0.4743,0.4726,0.4701,0.4684,0.465,0.4624,0.4595,0.4577,0.4563,0.456,0.4557,0.4563,0.4573,0.4567,0.4569,0.456,0.456,0.456,0.4559,0.4559,0.4903,0.489,0.4864,0.484,0.4822,0.4802,0.4786,0.4766,0.4745,0.4716,0.4702,0.4677,0.4651,0.4611,0.4594,0.4573,0.4569,0.4565,0.4564,0.4564,0.4565,0.4577,0.4568,0.4568,0.4568,0.4568,0.4568,0,0.49,0.4882,0.4861,0.4831,0.4813,0.4803,0.4778,0.4763,0.4741,0.4718,0.4697,0.4668,0.4644,0.4617,0.4591,0.458,0.4572,0.4573,0.4574,0.457,0.457,0.4575,0.458,0.458,0.458,0.458,0.458,0.458,0.4896,0.4873,0.486,0.4828,0.481,0.4786,0.4773,0.4754,0.4736,0.4705,0.4684,0.4668,0.4643,0.4615,0.4592,0.4585,0.4576,0.4579,0.457,0.4571,0.457,0.4569,0.4573,0.4577,0.4577,0.4571,0.4571,0.4571]},{"header":{"parameterUnit":"m.s-1","parameterCategory":1,"la1":30.2991,"la2":30.254,"lo1":-89.0895,"lo2":-89.0444,"dy":0.0017,"dx":0.0017,"nx":28,"ny":28,"refTime":"2024-08-20T09:00:00:Z","depth":0,"parameterNumber":3,"parameterNumberName":"V-component_of_WINDS"},"data":[0,0,0,0,0,0,0,0,0,0,0,0,0,0,0,0,0,0,0,0,0,0,0,0,0,0,0,0,0,0,0,0,0,0,0,0,0,0,0,0,0,0,0,0,0,0,0,0,0,0,0,0,0,0,0,0,0,0,-4.2061,-4.2062,0,-4.2187,-4.2188,-4.219,-4.2154,-4.2151,-4.2149,-4.2146,-4.227,-4.2275,-4.2281,0,0,0,0,0,0,0,0,0,0,0,0,0,-4.1785,-4.179,-4.2061,-4.2063,-4.2064,-4.2187,-4.2188,-4.219,-4.2154,-4.2151,-4.2148,-4.2145,-4.2268,-4.2275,-4.2282,0,0,0,0,0,0,0,0,0,0,0,0,0,-4.1907,-4.1792,-4.2061,-4.2061,-4.2062,-4.2186,-4.2188,-4.2191,-4.2155,-4.2151,-4.2147,-4.2143,-4.2266,-4.2274,-4.2283,-4.2412,0,0,-4.2309,-4.2312,0,0,0,0,0,0,0,0,-4.19,-4.1917,-4.2059,-4.2061,-4.2063,-4.2151,-4.2136,-4.2265,-4.2156,-4.212,-4.2146,-4.2142,-4.2233,-4.2244,-4.2276,-4.2418,-4.2423,-4.2309,-4.2315,-4.2318,-4.2321,0,0,0,0,0,0,0,-4.1892,-4.1911,-4.2111,-4.2062,-4.2064,-4.2053,-4.2066,-4.216,-4.2196,-4.2122,-4.212,-4.2136,-4.2233,-4.2268,-4.2279,-4.2425,-4.2309,-4.2317,-4.2322,-4.2325,-4.2679,-4.2683,0,0,0,0,0,0,-4.1882,-4.1905,-4.2107,-4.2114,-4.197,-4.2061,-4.2076,-4.2126,-4.2195,-4.2202,-4.2139,-4.2134,-4.2255,-4.2269,-4.2283,-4.2439,-4.2318,-4.2326,-4.2331,-4.2675,-4.268,-4.2685,0,0,0,0,0,0,-4.1877,-4.1901,-4.2102,-4.2009,-4.2034,-4.207,-4.2127,-4.2131,-4.2165,-4.2208,-4.2213,-4.2168,-4.2253,-4.2271,-4.2381,-4.2443,-4.233,-4.2338,-4.267,-4.2677,-4.2683,-4.2753,0,0,0,0,0,0,-4.1869,-4.1899,-4.195,-4.201,-4.2039,-4.2199,-4.2131,-4.2136,-4.2181,-4.2175,-4.2237,-4.2243,-4.2251,-4.2368,-4.2389,-4.2453,-4.2344,-4.2665,-4.2673,-4.2681,-4.2745,-4.2761,-4.2774,0,0,0,0,0,-4.1859,-4.1964,-4.1953,-4.1977,-4.2104,-4.2203,-4.2219,-4.2228,-4.2186,-4.2237,-4.2264,-4.2241,-4.2433,-4.238,-4.2403,-4.247,-4.2661,-4.2671,-4.268,-4.2739,-4.2758,-4.2774,0,0,0,0,0,0,-4.1908,-4.1972,-4.196,-4.2088,-4.214,-4.2197,-4.2261,-4.2248,-4.2312,-4.2303,-4.231,-4.2324,-4.2436,-4.2464,-4.2404,-4.2599,-4.254,-4.2555,-4.2577,-4.2596,-4.261,-4.2601,-4.2351,0,0,0,0,0,-4.1933,-4.201,-4.2061,-4.2169,-4.2196,-4.2224,-4.2267,-4.227,-4.2324,-4.2345,-4.238,-4.2432,-4.2504,-4.2551,-4.262,-4.2749,-4.2761,-4.2806,-4.2821,-4.2833,-4.2845,-4.2915,-4.2936,-4.2717,-4.2717,-4.2716,0,0,-4.1987,-4.2031,-4.2079,-4.218,-4.2221,-4.2299,-4.2243,-4.2328,-4.2385,-4.2358,-4.2464,-4.2492,-4.255,-4.267,-4.2724,-4.2696,-4.2909,-4.2845,-4.2854,-4.286,-4.2927,-4.2948,-4.2966,-4.2723,-4.2722,-4.2721,0,0,-4.2125,-4.2166,-4.226,-4.2303,-4.2367,-4.2385,-4.2407,-4.2466,-4.2484,-4.2591,-4.2572,-4.2639,-4.2763,-4.2805,-4.2843,-4.2997,-4.2978,-4.3019,-4.3095,-4.3163,-4.318,-4.3196,-4.325,-4.327,-4.3031,-4.3031,-4.3031,0,-4.2183,-4.2301,-4.231,-4.2397,-4.2441,-4.2422,-4.2516,-4.2557,-4.2638,-4.2669,-4.2636,-4.2792,-4.2829,-4.2959,-4.2997,-4.3028,-4.3053,-4.3012,-4.3177,-4.3193,-4.3207,-4.3259,-4.328,-4.3036,-4.3035,-4.3035,-4.3034,0,-4.2369,-4.2452,-4.252,-4.2601,-4.2653,-4.2743,-4.2765,-4.2816,-4.2813,-4.2834,-4.2943,-4.2988,-4.3065,-4.3096,-4.3094,-4.3225,-4.3206,-4.3176,-4.3117,-4.3233,-4.3281,-4.3301,-4.3042,-4.3041,-4.3039,-4.3038,0,0,-4.2541,-4.2627,-4.2652,-4.2688,-4.2757,-4.282,-4.2909,-4.2986,-4.3029,-4.3086,-4.316,-4.3266,-4.3238,-4.3281,-4.3283,-4.3343,-4.3462,-4.3305,-4.3307,-4.3333,-4.3609,-4.3631,-4.3654,-4.345,-4.3453,-4.3456,-4.3604,0,-4.2684,-4.2843,-4.2853,-4.2996,-4.3071,-4.3054,-4.3131,-4.318,-4.3202,-4.3268,-4.3291,-4.3366,-4.3324,-4.335,-4.3408,-4.3435,-4.3517,-4.3424,-4.3517,-4.352,-4.3503,-4.368,-4.3704,-4.3841,-4.3623,-4.3626,-4.3628,0,-4.2873,-4.2937,-4.3088,-4.3146,-4.3178,-4.3248,-4.3319,-4.3383,-4.3438,-4.345,-4.3498,-4.3492,-4.3581,-4.352,-4.3643,-4.3579,-4.3618,-4.3636,-4.3642,-4.3651,-4.3581,-4.3693,-4.3884,-4.3905,-4.3659,-4.3656,-4.3654,0,-4.2983,-4.3107,-4.3213,-4.3245,-4.3316,-4.3365,-4.3396,-4.3448,-4.3493,-4.3555,-4.3585,-4.3655,-4.3694,-4.3748,-4.3761,-4.3715,-4.3883,-4.3823,-4.3894,-4.3894,-4.3931,-4.3928,-4.4131,-4.3956,-4.3955,-4.3955,-4.3954,0,-4.3142,-4.3234,-4.3264,-4.3329,-4.3432,-4.3443,-4.3544,-4.3571,-4.3618,-4.3687,-4.3675,-4.374,-4.3753,-4.382,-4.383,-4.393,-4.3947,-4.3958,-4.3959,-4.3959,-4.3958,-4.3984,-4.3975,-4.396,-4.3959,-4.3958,-4.3957,0,-4.3282,-4.3305,-4.342,-4.3478,-4.3494,-4.3568,-4.3616,-4.3678,-4.3698,-4.3786,-4.3807,-4.3839,-4.3917,-4.3935,-4.4028,-4.4034,-4.4153,-4.4145,-4.4135,-4.4134,-4.4205,-4.4198,-4.4431,-4.4462,-4.4267,-4.4269,-4.427,0,-4.3382,-4.3453,-4.3519,-4.3565,-4.3599,-4.3674,-4.3721,-4.3733,-4.3782,-4.3851,-4.3904,-4.3982,-4.4044,-4.417,-4.42,-4.4271,-4.4265,-4.4342,-4.4275,-4.4272,-4.4266,-4.4261,-4.4268,-4.4354,-4.4356,-4.4358,-4.4359,0,-4.3557,-4.3565,-4.3634,-4.3708,-4.3765,-4.3823,-4.3878,-4.3916,-4.3936,-4.3991,-4.4072,-4.4121,-4.4217,-4.4293,-4.4364,-4.4394,-4.438,-4.438,-4.44,-4.4401,-4.4392,-4.4398,-4.4169,-4.4375,-4.4373,-4.4372,-4.4371,-4.4371,-4.368,-4.3742,-4.3799,-4.3876,-4.3919,-4.3971,-4.4032,-4.4061,-4.4129,-4.4209,-4.4212,-4.43,-4.4352,-4.4447,-4.4481,-4.4549,-4.4525,-4.4554,-4.4562,-4.4569,-4.4575,-4.4381,-4.4562,-4.4561,-4.4561,-4.4561,-4.456,0,-4.3854,-4.3889,-4.3961,-4.4039,-4.41,-4.4083,-4.4143,-4.4194,-4.4273,-4.4324,-4.4386,-4.4479,-4.4553,-4.4589,-4.4662,-4.471,-4.4705,-4.4728,-4.4725,-4.4732,-4.4593,-4.4568,-4.4731,-4.4731,-4.4731,-4.4731,-4.4731,-4.4731,-4.3952,-4.4057,-4.4072,-4.4197,-4.4231,-4.4319,-4.4355,-4.4402,-4.4443,-4.4548,-4.461,-4.4634,-4.4679,-4.4755,-4.4822,-4.4831,-4.4858,-4.4885,-4.489,-4.4759,-4.4742,-4.4725,-4.4702,-4.4891,-4.4891,-4.5024,-4.5025,-4.5026]}]]